Weather in Oxford

United Kingdom     51°45′07″N   1°15′30″W
temp.,
°C
wind,
m/s
gust,
m/s
humid.,
%
clouds,
%
prec.,
mm/h
press.,
hPa
HPBL,
m
16 may, sun
sun1601:00+5sw379685 0.8 999123
04:00+5ssw2495100 0.0 99966
07:00+7ssw269587 0.0 999205
10:00+9s3588100 0.1 998424
13:00+11ssw5788100 1.3 998607
16:00+12ssw5684100 1.5 9961097
19:00+11s349499 2.6 995283
22:00+9nnw2296100 0.6 99630
17 may, mon
mon1701:00+7wnw239553 0.6 99844
04:00+6wnw239582 0.0 100041
07:00+8wnw2695100 0.0 1003226
10:00+12nw358033 0.0 1004803
13:00+14wnw447485 1.8 10051296
16:00+14wnw4578100 2.3 1006981
19:00+11nw5889100 5.5 1008414
22:00+8wnw3894100 0.3 1010166
18 may, tue
tue1801:00+6w3595100 0.3 101185
04:00+5w3493100 0.0 101270
07:00+7wsw269499 0.0 1014183
10:00+12wnw57680 0.0 10151060
13:00+14w686546 0.3 10151738
16:00+13w687183 1.1 10161362
19:00+11w588728 2.4 1016587
22:00+7wsw36957 0.9 1018127
19 may, wed
wed1901:00+5wsw33965 0.9 101853
04:00+4wsw229713 0.0 101829
07:00+7wsw239510 0.0 1019124
10:00+12w347671 0.0 1019849
13:00+14wnw457089 1.2 10191411
16:00+14wnw577198 1.5 10191408
19:00+12wnw48795 2.1 1019417
22:00+7w35910 0.2 102178
20 may, thu
thu2001:00+4wsw349380 0.2 102149
04:00+4wsw349660 0.0 102156
07:00+7sw369524 0.0 1022189
10:00+12sw5674100 0.0 1022896
13:00+14sw6765100 0.0 10201359
16:00+13sw6976100 0.0 10191150
19:00+11ssw61279100 0.1 1017745
22:00+11s81584100 0.0 1014798